www.pogodaiklimat.ru

Погода и климат >> Архив погоды >> Пакистан >> Бахавалпур


ПОГОДА в Бахавалпуре

  • Прогноз погоды в Бахавалпуре
  • Монитор погоды в Бахавалпуре

АРХИВ ПОГОДЫ в Бахавалпуре

Время (UTC), дата Ветер
(напр.,м/с)
 
Видим.   Явления Облачность Т
(С)
Тd
(С)
f
(%)
Тe
(С)
Тes
(С)
Комфортность P
(гПа)
Po
(гПа)
Тmin
(С)
Tmax
(С)
R
(мм)
R24
(мм)
S
(см)
06 19.08 ЮВ 1 2000 м дым ясно +34.0 +24.1 56 +46 +67 опасность
перегрева
1004.2 1000.0
09 19.08 ЮВ 2 4000 м дым 4/4 1200 м
[Sc diur, vesp]
+36.0 +24.9 53 +49 +60 опасность
перегрева
1002.6 1000.0
12 19.08 ЮВ 1 4000 м дым 3/3 1200 м
[Sc diur, vesp]
+36.5 +25.5 53 +51 +53 опасность
перегрева
1001.7 989.7 +37.3
15 19.08 ЮВ 4 2000 м дым 3/3 1200 м
[Sc diur, vesp]
+33.0 +24.6 61 +46 +46 опасность
перегрева
1002.4 989.8
18 19.08 ЮВ 2 2000 м дым 4/4 1200 м
[Sc diur, vesp]
+31.0 +24.6 69 +44 +44 опасность
перегрева
1004.8 1000.0
21 19.08 ЮВ 2 2000 м дым 4/4 1200 м
[Sc diur, vesp]
+29.0 +24.0 74 +40 +40 очень
душно
1003.2 1000.0
00 20.08 штиль 0 2000 м дым 3/0
[Ac trans]
+28.0 +23.7 77 +38 +38 очень
душно
1003.2 990.9
03 20.08 штиль 0 2000 м дым ясно +29.5 +24.5 75 +42 +49 опасность
перегрева
1004.4 992.2 +26.9
06 20.08 ЮЗ 2 4000 м дым ясно +35.0 +25.3 57 +49 +69 опасность
перегрева
1004.2 1000.0
09 20.08 ЮЗ 2 4000 м дым 1/1 1200 м
[Sc diur, vesp]
+37.0 +25.2 51 +51 +67 опасность
перегрева
1003.0 1000.0
12 20.08 ЮЗ 1 4000 м мгла 1/1 1200 м
[Sc]
+37.5 +25.0 49 +51 +54 опасность
перегрева
1000.8 989.0 +37.7
15 20.08 штиль 0 4000 м дым 3/0
[Ac trans]
+34.0 +25.7 62 +49 +49 опасность
перегрева
1000.7 988.2
18 20.08 штиль 0 2000 м дым 3/0
[Ac trans]
+31.5 +25.2 69 +45 +45 опасность
перегрева
1001.2 1000.0
21 20.08 штиль 0 2000 м дым 3/0
[Ac trans]
+29.5 +24.5 75 +42 +42 опасность
перегрева
1000.6 1000.0
00 21.08 штиль 0 2000 м дым 3/0
[Ac trans]
+28.0 +23.7 77 +38 +38 очень
душно
1000.2 987.9
03 21.08 ЮЗ 2 2000 м дым ясно +30.0 +25.1 75 +43 +48 опасность
перегрева
1000.9 988.7 +27.5
06 21.08 ЮЗ 2 4000 м дым ясно +35.0 +23.7 52 +46 +66 опасность
перегрева
1002.6 1000.0
09 21.08 ЮЗ 2 4000 м мгла ясно +38.0 +24.0 45 +49 +65 опасность
перегрева
1000.2 1000.0
12 21.08 ЮЗ 1 4000 м мгла ясно +38.0 +23.1 43 +48 +51 опасность
перегрева
998.9 987.1 +38.7
15 21.08 штиль 0 4000 м дым ясно +34.0 +24.9 59 +47 +47 опасность
перегрева
998.7 1000.0
18 21.08 штиль 0 2000 м дым ясно +31.0 +24.6 69 +44 +44 опасность
перегрева
999.4 1000.0
21 21.08 штиль 0 2000 м дым ясно +29.0 +24.0 74 +40 +40 очень
душно
999.1 1000.0
00 22.08 штиль 0 2000 м дым ясно +28.0 +23.7 77 +38 +38 очень
душно
998.8 986.5
03 22.08 ЮЗ 2 2000 м дым ясно +29.5 +25.3 78 +43 +48 опасность
перегрева
1001.3 989.1 +27.9
06 22.08 ЮЗ 3 4000 м дым ясно +34.5 +25.5 60 +49 +66 опасность
перегрева
1001.9 1000.0
09 22.08 ЮЗ 2 4000 м мгла ясно +37.0 +23.6 46 +47 +64 опасность
перегрева
1000.6 1000.0
12 22.08 ЮЗ 2 4000 м мгла ясно +38.0 +23.1 43 +48 +51 опасность
перегрева
998.7 986.8 +38.5
15 22.08 штиль 0 2000 м дым 1/1 1200 м
[Sc]
+34.0 +24.9 59 +47 +47 опасность
перегрева
999.0 1000.0
18 22.08 СЗ 2 4000 м дым ясно +31.0 +25.4 72 +45 +45 опасность
перегрева
1000.6 988.0
21 22.08 штиль 0 4000 м дым ясно +29.5 +24.5 75 +42 +42 опасность
перегрева
1000.0 1000.0
00 23.08 штиль 0 2000 м дым ясно +27.5 +23.1 77 +37 +37 очень
душно
1001.4 989.1
03 23.08 ЮЗ 2 2000 м дым ясно +28.5 +23.5 74 +39 +44 очень
душно
1002.4 990.2 +26.5
06 23.08 ЮЗ 2 4000 м дым ясно +33.0 +25.3 64 +47 +67 опасность
перегрева
1002.2 1000.0
09 23.08 ЮЗ 2 4000 м дым ясно +36.0 +26.4 58 +53 +69 опасность
перегрева
1000.7 1000.0
12 23.08 штиль 0 4000 м дым ясно +37.5 +25.8 51 +52 +56 опасность
перегрева
999.4 987.4 +38.1
15 23.08 штиль 0 2000 м дым ясно +34.0 +25.7 62 +49 +49 опасность
перегрева
1000.6 1000.0
18 23.08 штиль 0 2000 м дым ясно +31.0 +24.6 69 +44 +44 опасность
перегрева
1001.2 1000.0
21 23.08 ЮЗ 1 2000 м дым ясно +29.5 +24.5 75 +42 +42 опасность
перегрева
999.7 987.0
00 24.08 штиль 0 2000 м дым ясно +28.0 +23.7 77 +38 +38 очень
душно
1000.4 988.1
03 24.08 ЮЗ 2 2000 м дым ясно +29.5 +20.7 59 +37 +41 очень
душно
1001.5 989.3 +27.8
06 24.08 ЮЗ 3 2000 м дым ясно +33.5 +25.9 65 +49 +64 опасность
перегрева
1002.3 1000.0
09 24.08 ЮЗ 2 4000 м мгла ясно +38.0 +22.3 41 +47 +64 опасность
перегрева
1000.3 1000.0
12 24.08 ЮЗ 1 4000 м мгла ясно +38.0 +22.3 41 +47 +50 опасность
перегрева
998.2 986.3 +38.5
15 24.08 штиль 0 2000 м дым 3/0
[Ac trans]
+35.0 +24.5 55 +48 +48 опасность
перегрева
999.5 1000.0
18 24.08 штиль 0 2000 м дым 3/0
[Ac trans]
+33.5 +25.1 62 +48 +48 опасность
перегрева
1000.7 1000.0
21 24.08 ЮЗ 2 2000 м дым 3/0
[Ac trans]
+32.0 +25.8 70 +47 +47 опасность
перегрева
999.1 1000.0
00 25.08 ЮЗ 1 2000 м дым 1/0
[Ac trans]
+29.5 +23.8 71 +40 +40 очень
душно
999.6 987.4
03 25.08 ЮЗ 2 2000 м дым 3/0
[Ac trans]
+29.5 +23.8 71 +40 +45 очень
душно
1000.3 988.1 +28.5
06 25.08 ЮЗ 4 4000 м дым 3/0
[Ac trans]
+34.0 +25.7 62 +49 +59 опасность
перегрева
1001.7 989.2
09 25.08 ЮЗ 2 4000 м мгла 3/0
[Ac trans]
+37.5 +23.4 45 +48 +62 опасность
перегрева
1000.1 1000.0
12 25.08 ЮЗ 2 4000 м мгла 3/0
[Ac trans]
+38.5 +23.8 43 +49 +51 опасность
перегрева
998.4 986.5 +38.9
15 25.08 штиль 0 2000 м дым 3/0
[Ac trans]
+33.5 +24.4 59 +46 +46 опасность
перегрева
998.7 1000.0
18 25.08 штиль 0 2000 м дым 3/0
[Ac trans]
+32.0 +24.2 63 +44 +44 опасность
перегрева
1000.5 1000.0
21 25.08 ЮЗ 3 2000 м дым 3/0
[Ac trans]
+30.5 +24.9 72 +44 +44 опасность
перегрева
999.4 986.8
00 26.08 штиль 0 2000 м дым 6/3 1200 м
[Sc Ac trans]
+29.0 +24.0 74 +40 +40 очень
душно
1000.6 988.4
03 26.08 ЮЗ 1 2000 м дым 5/0
[Ac trans]
+30.5 +24.1 69 +42 +47 опасность
перегрева
1001.2 989.0 +28.9

 

Местоположение метеостанции Бахавалпур (Пакистан): широта 29.40 долгота 71.78 высота над уровнем моря 113 м.

В архиве по умолчанию представлена погода в Бахавалпуре за последнюю неделю. Архивные данные за месяц целиком и за предыдущие месяцы, начиная с января 2011 года, Вы можете получить, выбрав интересующий диапазон дат из раскрывающегося списка и нажав кнопку "Ввод!".


*Определитесь, кто Вы:
робот инопланетянин человек

Внимание! Время в таблицах - всемирное. Для получения местного времени необходимо прибавить поправку, которая равна 5 ч.

Смотрите также архив погоды в соседних городах и на ближайших метеорологических станциях:

Погода в Мултане (Пакистан) (95 км)
Погода в Ханевале (Пакистан) (101 км)
Погода в Дера Гази Хан (Пакистан) (133 км)
Погода в Ханпуре (Пакистан) (136 км)
Погода в Кот Адду (Пакистан) (142 км)
Погода в Бахавалнагаре (Пакистан) (155 км)
Погода на Авиабазе Raifiqui (Пакистан) (159 км)
Погода в Рахим Яр Хан (Пакистан) (178 км)
Погода в Сахивале (Пакистан) (184 км)
Погода в Тоба Тек Сингх (Пакистан) (188 км)

Пояснения к столбцам:

Ветер - указаны скорость ветра в м/с - средняя за 10 мин, порывы в срок и между сроками (в фигурных скобках) и направление, откуда дует ветер: С - северный, СВ - северо-восточный, В - восточный, ЮВ - юго-восточный, Ю - южный, ЮЗ - юго-западный, З - западный, СЗ - северо-западный.
Видимость - горизонтальная дальность видимости в метрах или километрах. При видимости от 1 до 10 км при отсутствии осадков обычно наблюдается дымка, при ухудшении видимости до 1 км и менее - туман. В сухую погоду видимость может ухудшаться дымом, пылью или мглою.
Явления - указаны атмосферные явления, наблюдавшиеся в срок или в последний час перед сроком; фигурными скобками обозначены явления, наблюдавшиеся между сроками (за 1-3 часа до срока); квадратными скобками обозначены град или гололедные отложения с указанием их диаметра в мм.
Облачность - указаны через наклонную черту общая и нижняя облачность в баллах и высота нижней границы облаков в метрах; квадратными скобками обозначены формы облаков: Ci - перистые, Cs - перисто-слоистые, Cc - перисто-кучевые, Ac - высококучевые, As - высокослоистые, Sc - слоисто-кучевые, Ns - слоисто-дождевые, Cu - кучевые, Cb - кучево-дождевые. Подробнее классификацию облаков см. в Атласе облаков (PDF).
T - Температура воздуха - температура, измеренная на высоте 2 м над землей.
Td - Температура точки росы - температура, при понижении до которой содержащийся в воздухе водяной пар достигнет насыщения.
f - Относительная влажность воздуха - влажноcть воздуха, измеренная на высоте 2 м над землей.
Te - Эффективная температура - температура, которую ощущает одетый по сезону человек в тени. Характеристика душности погоды. При расчете учитывается влияние влажности воздуха и скорости ветра на теплоощущения человека.
Tes - Эффективная температура на солнце - температура, которую ощущает человек, с поправкой на солнечный нагрев. Характеристика знойности погоды. Зависит от высоты солнца над горизонтом, облачности и скорости ветра. Ночью, в пасмурную погоду, а также при ветре 12 м/с и более поправка равна нулю.
P - Атмосферное давление - приведенное к уровню моря атмосферное давление.
Po - Атмосферное давление - измеренное на уровне метеостанции атмосферное давление.
Tmin - Минимальная температура - минимум температуры воздуха на высоте 2 м над землей.
Tmax - Максимальная температура - максимум температуры воздуха на высоте 2 м над землей.
R - Количество осадков - Количество выпавших осадков за период времени, мм. При наведении курсора мыши на число - период времени, за который выпало указанное количество осадков.
R24 - Количество осадков - Количество выпавших осадков за 24 часа, мм.
S - Снежный покров - Высота снежного покрова, см. При наведении курсора мыши на число - состояние снежного покрова и степень покрытия местности в баллах.